Date String (YYYY-MM-DD hh:mm:ss) UTC,Instrument flags,Ambient pressure (hPa),Sample flow (lpm),Bypass flow (lpm),Sample temperature (°C),Ambient temperature (°C),ASC tube jacket temperature (°C),LED temperature (°C),Box temperature (°C),Sample RH (%),Span deviation,Mass concentration (μg/m³),Mass concentration (μg/m³),Mass concentration (μg/m³)
DateTimeUTC,F1_M11,P_M11,Q1_M11,Q2_M11,T1_M11,T2_M11,T3_M11,T4_M11,T5_M11,U1_M11,ZSPAN_M11,X2_M11,X0_M11,X1_M11
2021-12-22 06:00:00,,0822.8,5.00,0.00,24.2,23.4,00.0,33.2,25.9,03.4,0000.0,0000.91,0004.18,0000.60
2021-12-22 06:01:00,,0822.8,5.00,0.00,24.2,23.4,00.0,33.2,26.0,03.4,0000.0,0000.89,0003.34,0000.60
2021-12-22 06:02:00,,0822.8,5.01,0.00,24.2,23.4,00.0,33.2,25.9,03.4,0000.0,0000.87,0002.66,0000.59
2021-12-22 06:03:00,,0822.9,4.99,0.00,24.2,23.4,00.0,33.2,25.9,03.4,0000.0,0000.86,0002.53,0000.58
2021-12-22 06:04:00,,0822.9,5.01,0.00,24.2,23.4,00.0,33.2,25.9,03.4,0000.0,0000.82,0001.41,0000.56
2021-12-22 06:05:00,,0822.8,4.98,0.00,24.2,23.4,00.0,33.2,25.9,03.4,0000.0,0000.83,0001.42,0000.55
2021-12-22 06:06:00,,0822.8,5.01,0.00,24.2,23.4,00.0,33.2,26.0,03.3,0000.0,0000.83,0001.43,0000.54
2021-12-22 06:07:00,,0822.7,4.99,0.00,24.2,23.4,00.0,33.2,26.0,03.4,0000.0,0000.84,0001.56,0000.54
2021-12-22 06:08:00,,0822.7,5.01,0.00,24.2,23.4,00.0,33.2,26.0,03.4,0000.0,0000.82,0002.29,0000.53
2021-12-22 06:09:00,,0822.8,5.00,0.00,24.2,23.4,00.0,33.2,26.0,03.4,0000.0,0000.87,0003.01,0000.52
2021-12-22 06:10:00,,0822.7,5.00,0.00,24.2,23.4,00.0,33.2,26.0,03.4,0000.0,0000.88,0003.05,0000.52
2021-12-22 06:11:00,,0822.8,5.01,0.00,24.2,23.4,00.0,33.2,25.9,03.4,0000.0,0000.87,0003.03,0000.50
2021-12-22 06:12:00,,0822.8,4.99,0.00,24.2,23.4,00.0,33.2,25.9,03.4,0000.0,0000.84,0002.96,0000.50
2021-12-22 06:13:00,,0822.8,5.01,0.00,24.2,23.4,00.0,33.2,25.9,03.4,0000.0,0000.82,0002.95,0000.50
2021-12-22 06:14:00,,0822.7,4.99,0.00,24.2,23.4,00.0,33.2,26.0,03.4,0000.0,0000.79,0003.00,0000.49
2021-12-22 06:15:00,,0822.6,5.00,0.00,24.2,23.4,00.0,33.2,26.0,03.4,0000.0,0000.80,0003.01,0000.48
2021-12-22 06:16:00,,0822.6,5.02,0.00,24.2,23.4,00.0,33.2,26.0,03.4,0000.0,0000.77,0002.93,0000.48
2021-12-22 06:17:00,,0822.6,4.99,0.00,24.2,23.4,00.0,33.2,26.0,03.3,0000.0,0000.72,0002.75,0000.48
2021-12-22 06:18:00,,0822.6,5.00,0.00,24.2,23.4,00.0,33.2,26.0,03.4,0000.0,0000.68,0002.54,0000.47
2021-12-22 06:19:00,,0822.7,4.99,0.00,24.2,23.5,00.0,33.2,26.0,03.4,0000.0,0000.70,0002.04,0000.47
2021-12-22 06:20:00,,0822.7,5.00,0.00,24.2,23.4,00.0,33.2,26.0,03.3,0000.0,0000.68,0001.16,0000.47
2021-12-22 06:21:00,,0822.7,5.02,0.00,24.2,23.5,00.0,33.2,26.0,03.3,0000.0,0000.65,0001.16,0000.46
2021-12-22 06:22:00,,0822.8,5.00,0.00,24.3,23.5,00.0,33.2,26.0,03.3,0000.0,0000.67,0001.71,0000.46
2021-12-22 06:23:00,,0822.8,5.01,0.00,24.2,23.4,00.0,33.2,26.0,03.3,0000.0,0000.66,0001.68,0000.45
2021-12-22 06:24:00,,0822.8,4.99,0.00,24.2,23.4,00.0,33.2,25.9,03.4,0000.0,0000.66,0001.67,0000.45
2021-12-22 06:25:00,,0822.8,4.99,0.00,24.2,23.4,00.0,33.2,25.9,03.4,0000.0,0000.66,0001.60,0000.46
2021-12-22 06:26:00,,0822.8,5.00,0.00,24.2,23.4,00.0,33.2,25.9,03.4,0000.0,0000.64,0001.70,0000.46
2021-12-22 06:27:00,,0822.8,4.99,0.00,24.2,23.3,00.0,33.2,25.9,03.4,0000.0,0000.63,0001.71,0000.45
2021-12-22 06:28:00,,0822.8,5.00,0.00,24.2,23.3,00.0,33.2,25.8,03.3,0000.0,0000.65,0001.81,0000.44
2021-12-22 06:29:00,,0822.7,5.00,0.00,24.2,23.3,00.0,33.2,25.9,03.4,0000.0,0000.67,0001.89,0000.45
2021-12-22 06:30:00,,0822.6,5.00,0.00,24.2,23.3,00.0,33.2,25.9,03.4,0000.0,0000.64,0001.82,0000.44
2021-12-22 06:31:00,,0822.7,5.01,0.00,24.2,23.3,00.0,33.2,25.9,03.4,0000.0,0000.61,0001.83,0000.44
2021-12-22 06:32:00,,0822.8,5.00,0.00,24.2,23.3,00.0,33.2,25.8,03.4,0000.0,0000.59,0001.74,0000.43
2021-12-22 06:33:00,,0822.7,5.01,0.00,24.2,23.3,00.0,33.2,25.9,03.3,0000.0,0000.57,0001.21,0000.43
2021-12-22 06:34:00,,0822.7,4.98,0.00,24.1,23.3,00.0,33.2,25.9,03.3,0000.0,0000.56,0001.23,0000.42
2021-12-22 06:35:00,,0822.7,5.01,0.00,24.1,23.3,00.0,33.2,25.9,03.2,0000.0,0000.56,0001.38,0000.42
2021-12-22 06:36:00,,0822.7,5.00,0.00,24.1,23.3,00.0,33.2,25.9,03.2,0000.0,0000.59,0001.69,0000.41
2021-12-22 06:37:00,,0822.7,5.02,0.00,24.1,23.3,00.0,33.2,25.9,03.2,0000.0,0000.60,0001.59,0000.40
2021-12-22 06:38:00,,0822.7,4.99,0.00,24.1,23.3,00.0,33.2,25.9,03.3,0000.0,0000.61,0001.60,0000.39
2021-12-22 06:39:00,,0822.6,4.99,0.00,24.1,23.3,00.0,33.2,25.9,03.3,0000.0,0000.59,0001.56,0000.39
2021-12-22 06:40:00,,0822.7,5.00,0.00,24.1,23.3,00.0,33.1,25.8,03.3,0000.0,0000.57,0001.48,0000.38
2021-12-22 06:41:00,,0822.7,5.00,0.00,24.1,23.3,00.0,33.1,25.8,03.3,0000.0,0000.58,0001.65,0000.37
2021-12-22 06:42:00,,0822.7,4.99,0.00,24.1,23.3,00.0,33.1,25.8,03.3,0000.0,0000.58,0003.29,0000.37
2021-12-22 06:43:00,,0822.7,5.02,0.00,24.1,23.3,00.0,33.1,25.7,03.3,0000.0,0000.57,0003.21,0000.38
2021-12-22 06:44:00,,0822.7,4.99,0.00,24.0,23.2,00.0,33.1,25.7,03.3,0000.0,0000.62,0003.38,0000.38
2021-12-22 06:45:00,,0822.6,5.00,0.00,24.0,23.2,00.0,33.1,25.7,03.3,0000.0,0000.64,0003.43,0000.38
2021-12-22 06:46:00,,0822.6,5.01,0.00,24.0,23.2,00.0,33.1,25.7,03.3,0000.0,0000.64,0003.27,0000.38
2021-12-22 06:47:00,,0822.6,5.00,0.00,24.0,23.2,00.0,33.1,25.7,03.3,0000.0,0000.62,0002.93,0000.38
2021-12-22 06:48:00,,0822.7,5.01,0.00,24.0,23.2,00.0,33.1,25.7,03.3,0000.0,0000.62,0002.90,0000.37
2021-12-22 06:49:00,,0822.7,4.99,0.00,24.0,23.2,00.0,33.0,25.7,03.3,0000.0,0000.60,0002.85,0000.37
2021-12-22 06:50:00,,0822.7,5.00,0.00,24.0,23.2,00.0,33.0,25.7,03.3,0000.0,0000.58,0002.80,0000.38
2021-12-22 06:51:00,,0822.6,4.98,0.00,24.0,23.3,00.0,33.0,25.7,03.2,0000.0,0000.58,0002.79,0000.38
2021-12-22 06:52:00,,0822.6,5.01,0.00,24.0,23.2,00.0,33.0,25.7,03.3,0000.0,0000.59,0002.55,0000.37
2021-12-22 06:53:00,,0822.6,5.01,0.00,24.0,23.2,00.0,33.0,25.6,03.3,0000.0,0000.59,0001.85,0000.37
2021-12-22 06:54:00,,0822.7,4.99,0.00,24.0,23.2,00.0,33.0,25.6,03.3,0000.0,0000.63,0002.07,0000.37
2021-12-22 06:55:00,,0822.7,5.00,0.00,23.9,23.2,00.0,33.0,25.6,03.3,0000.0,0000.63,0002.53,0000.37
2021-12-22 06:56:00,,0822.6,5.00,0.00,23.9,23.2,00.0,33.0,25.6,03.3,0000.0,0000.63,0002.56,0000.37
2021-12-22 06:57:00,,0822.6,4.99,0.00,23.9,23.2,00.0,33.0,25.6,03.3,0000.0,0000.62,0002.54,0000.37
2021-12-22 06:58:00,,0822.7,5.02,0.00,23.9,23.1,00.0,33.0,25.6,03.3,0000.0,0000.64,0002.58,0000.37
2021-12-22 06:59:00,,0822.6,4.99,0.00,23.9,23.1,00.0,33.0,25.5,03.4,0000.0,0000.63,0002.58,0000.38
